Aérodrome :
LOGIN :

S'inscrire | Disclaimer

   EN    FR    IT 

 










Légende :    VFR   VFR Marginal   IFR   IFR Intensif   IFR Très Intensif
Visi : 
Plafond : 
>= 8 km
>= 3000ft
5 à 8 km
1000 à 3000 ft
1500m à 5 km
500 à 1000 ft
800 à 1500m
200 à 500 ft
< 800m
< 200 ft
Symboles :   Orages  Brouillard  Fortes neiges  Fortes précipitations  Vent > 20 kt
SIGMETs :   Divers  Orages  Givrage  Turbulence  Onde Orograph.  Cendres Volcan.







- Altitude de l'aérodrome : 12 ft
- Code IATA : NCE
- Voir les cartes d'approche


LFMN - Nice

DERNIER METAR :
  • 211800Z 07004KT 9999 FEW020 BKN044 17/13 Q1012 NOSIG

METARs EXPIRÉS :
  • 211730Z 08004KT 9999 FEW020 BKN044 17/13 Q1012 NOSIG
  • 211700Z 09003KT 9999 FEW020 BKN040 17/13 Q1012 NOSIG
  • 211630Z 11003KT 9999 FEW020 BKN040 17/13 Q1012 NOSIG
  • 211600Z 12003KT 9999 FEW020 BKN040 17/13 Q1012 NOSIG
  • 211530Z 13003KT 9999 FEW020 BKN040 17/13 Q1012 NOSIG

TAF TAF LFMN
Valide du 21 à 15h jusqu'au 22 à 21h UTC


211400Z 2115/2221 15005KT 9999 FEW020 BKN040
TEMPO 2121/2221 BKN010
BECMG 2207/2209 09012KT
ATIS : +33 4 93 17 21 16
Pas de NOTAMs connus pour ce terrain.



MET'MAP, la Météo Aéronautique d'un coup d'oeil ! - Copyright ORBIFLY Décembre 2007 - Disclaimer

ORBIFLY MET'MAP TEAM :

Programmation & Développement : Alexandra Zaïnal
Conception & Développement : Baudouin d'Aumeries
Co-Programmation & Développement : Marc-Olivier Méhu
Soutien technique & logistique : Manuel Goepfert

Contact : metmap@orbifly.com




SOURCES & CREDITS :

   NOAA